DW0664 Weather Reports


Display with metric or nautical units.
time (UTC)temp
F
wind
direction
speed
MPH
gust
MPH
rain 1hr
in
rain 24hr
in
rain mn
in
humidity
%
barometer
mb
20260901105619 77 56 0.0 0.0 0.00 0.00 0.00 90 1018.0
20260901105118 77 56 0.0 0.0 0.00 0.00 0.00 90 1017.8
20260901104614 77 56 0.0 0.0 0.00 0.00 0.00 90 1017.7
20260901104109 77 56 0.0 0.0 0.00 0.00 0.00 90 1017.8
20260901103608 77 56 0.0 0.0 0.00 0.00 0.00 90 1017.7
20260901103104 77 56 0.0 0.0 0.00 0.00 0.00 89 1018.0
20260901102559 77 56 0.0 0.0 0.00 0.00 0.00 89 1017.9
20260901102054 77 56 0.0 0.0 0.00 0.00 0.00 89 1017.8
20260901101549 78 56 0.0 0.0 0.00 0.00 0.00 89 1017.8
20260901101048 78 57 0.0 0.0 0.00 0.00 0.00 88 1017.7
20260901100542 78 57 0.0 0.0 0.00 0.00 0.00 88 1017.8
20260901100042 78 56 0.0 0.0 0.00 0.00 0.00 87 1017.6
20260901095540 78 56 0.0 0.0 0.00 0.00 0.00 87 1017.6
20260901095038 78 56 0.0 0.0 0.00 0.00 0.00 87 1017.6
20260901094533 78 56 0.0 0.0 0.00 0.00 0.00 87 1017.5
20260901094032 78 56 0.0 0.0 0.00 0.00 0.00 87 1017.6
20260901093527 78 56 0.0 0.0 0.00 0.00 0.00 87 1017.7
20260901093022 78 56 0.0 0.0 0.00 0.00 0.00 86 1017.8
20260901092518 79 57 0.0 0.0 0.00 0.00 0.00 86 1018.0
20260901092014 79 57 0.0 0.0 0.00 0.00 0.00 86 1017.9
20260901091510 79 58 0.0 0.0 0.00 0.00 0.00 85 1017.9
20260901091009 79 58 0.0 0.0 0.00 0.00 0.00 85 1018.0
20260901090509 79 57 0.0 0.0 0.00 0.00 0.00 85 1018.0
20260901090005 79 57 0.0 0.0 0.00 0.00 0.00 85 1017.9
20260901085500 79 57 0.0 0.0 0.00 0.00 0.00 85 1017.9
20260901084951 79 57 0.0 0.0 0.00 0.00 0.00 84 1017.8
20260901084447 79 60 0.0 0.0 0.00 0.00 0.00 84 1017.9
20260901083943 80 58 0.0 0.0 0.00 0.00 0.00 84 1018.0
20260901083443 80 57 0.0 0.0 0.00 0.00 0.00 83 1017.9
20260901082941 80 58 0.0 0.0 0.00 0.00 0.00 83 1017.9
20260901082436 80 60 0.0 1.0 0.00 0.00 0.00 83 1018.2
20260901081931 80 55 0.0 0.0 0.00 0.00 0.00 82 1018.1
20260901081426 80 58 0.0 0.0 0.00 0.00 0.00 82 1018.0
20260901080921 81 50 0.0 0.0 0.00 0.00 0.00 82 1017.9
20260901080420 81 56 0.0 0.0 0.00 0.00 0.00 82 1018.1
20260901075916 81 62 0.0 0.0 0.00 0.00 0.00 81 1018.1
20260901075416 81 65 0.0 0.0 0.00 0.00 0.00 81 1018.2
20260901074916 81 62 0.0 1.0 0.00 0.00 0.00 81 1018.1
20260901074410 81 63 0.0 0.0 0.00 0.00 0.00 81 1018.1
20260901073906 82 68 0.0 0.0 0.00 0.00 0.00 80 1018.0
20260901073402 82 36 1.0 2.0 0.00 0.00 0.00 80 1017.9
20260901072857 82 62 0.0 0.0 0.00 0.00 0.00 80 1017.9
20260901072357 82 63 0.0 1.0 0.00 0.00 0.00 80 1018.0
20260901071852 82 69 0.0 0.0 0.00 0.00 0.00 79 1018.1
20260901071351 82 61 0.0 3.0 0.00 0.00 0.00 79 1018.1
20260901070850 82 73 0.0 1.0 0.00 0.00 0.00 78 1018.2
20260901070346 82 65 0.0 1.0 0.00 0.00 0.00 78 1018.2
20260901065845 82 65 0.0 0.0 0.00 0.00 0.00 78 1018.2
20260901065340 82 69 1.0 2.0 0.00 0.00 0.00 78 1018.1
20260901064836 82 73 1.0 1.0 0.00 0.00 0.00 77 1018.0
20260901064332 82 73 0.0 1.0 0.00 0.00 0.00 77 1018.2
20260901063829 83 116 3.0 4.0 0.00 0.00 0.00 77 1018.3
20260901063325 83 84 1.0 1.0 0.00 0.00 0.00 77 1018.3
20260901062815 83 76 1.0 2.0 0.00 0.00 0.00 77 1018.3
20260901062310 82 63 0.0 1.0 0.00 0.00 0.00 76 1018.3
20260901061806 82 78 0.0 1.0 0.00 0.00 0.00 77 1018.2
20260901061306 82 72 0.0 1.0 0.00 0.00 0.00 76 1018.0
20260901060801 83 67 2.0 2.0 0.00 0.00 0.00 76 1018.0
20260901060257 83 78 0.0 3.0 0.00 0.00 0.00 76 1017.9
20260901055752 83 74 0.0 0.0 0.00 0.00 0.00 75 1018.1
20260901055248 83 63 0.0 1.0 0.00 0.00 0.00 74 1017.8
20260901054745 83 102 1.0 2.0 0.00 0.00 0.00 73 1017.9
20260901054241 83 69 1.0 1.0 0.00 0.00 0.00 72 1017.7
20260901053737 83 74 0.0 1.0 0.00 0.00 0.00 71 1017.8
20260901053232 83 69 1.0 1.0 0.00 0.00 0.00 71 1017.8
20260901052727 84 67 0.0 1.0 0.00 0.00 0.00 70 1017.6
20260901052223 84 83 1.0 1.0 0.00 0.00 0.00 70 1017.7
20260901051722 84 64 0.0 2.0 0.00 0.00 0.00 69 1017.6
20260901051216 84 112 1.0 2.0 0.00 0.00 0.00 69 1017.6
20260901050712 84 81 0.0 1.0 0.00 0.00 0.00 68 1017.5
20260901050207 85 97 0.0 1.0 0.00 0.00 0.00 68 1017.3
20260901045701 85 63 0.0 1.0 0.00 0.00 0.00 67 1017.5
20260901045156 85 64 0.0 1.0 0.00 0.00 0.00 67 1017.4
20260901044652 85 126 2.0 3.0 0.00 0.00 0.00 67 1017.3
20260901044148 85 71 1.0 1.0 0.00 0.00 0.00 66 1017.4
20260901043643 86 90 1.0 2.0 0.00 0.00 0.00 66 1017.3
20260901043139 86 61 0.0 1.0 0.00 0.00 0.00 65 1017.4
20260901042638 86 65 0.0 2.0 0.00 0.00 0.00 64 1017.5
20260901042133 87 64 0.0 2.0 0.00 0.00 0.00 64 1017.3
20260901041629 87 70 1.0 2.0 0.00 0.00 0.00 63 1017.3
20260901041124 87 86 1.0 3.0 0.00 0.00 0.00 62 1017.3
20260901040624 87 94 2.0 2.0 0.00 0.00 0.00 62 1017.3
20260901040123 87 164 2.0 3.0 0.00 0.00 0.00 62 1017.3
20260901035622 87 98 2.0 3.0 0.00 0.00 0.00 62 1017.4
20260901035121 87 60 2.0 2.0 0.00 0.00 0.00 62 1017.1
20260901034620 87 114 2.0 2.0 0.00 0.00 0.00 62 1017.1
20260901034115 87 91 2.0 3.0 0.00 0.00 0.00 61 1017.1
20260901033614 87 147 1.0 4.0 0.00 0.00 0.00 61 1017.0
20260901033114 87 70 1.0 4.0 0.00 0.00 0.00 61 1017.1
20260901032613 88 82 1.0 3.0 0.00 0.00 0.00 61 1017.0
20260901032108 88 84 1.0 6.0 0.00 0.00 0.00 62 1017.0
20260901031603 88 87 2.0 2.0 0.00 0.00 0.00 62 1017.0
20260901031059 88 70 1.0 1.0 0.00 0.00 0.00 62 1017.0
20260901030554 88 78 1.0 2.0 0.00 0.00 0.00 62 1016.9
20260901030049 88 76 1.0 3.0 0.00 0.00 0.00 62 1016.8
20260901025548 88 83 1.0 2.0 0.00 0.00 0.00 62 1016.8
20260901025043 88 122 1.0 2.0 0.00 0.00 0.00 62 1016.8
20260901024538 88 76 0.0 1.0 0.00 0.00 0.00 62 1016.6
20260901024036 89 59 0.0 4.0 0.00 0.00 0.00 61 1016.5
20260901023535 89 138 1.0 2.0 0.00 0.00 0.00 61 1016.3
20260901023031 89 87 1.0 2.0 0.00 0.00 0.00 61 1016.2
20260901022526 89 137 3.0 4.0 0.00 0.00 0.00 61 1016.0
20260901022021 89 147 2.0 3.0 0.00 0.00 0.00 61 1016.1
20260901021517 89 66 0.0 2.0 0.00 0.00 0.00 61 1016.1
20260901021012 89 97 1.0 3.0 0.00 0.00 0.00 61 1016.2
20260901020507 89 91 1.0 2.0 0.00 0.00 0.00 61 1016.2
20260901020007 90 95 2.0 3.0 0.00 0.00 0.00 60 1016.2
20260901015503 90 76 0.0 3.0 0.00 0.00 0.00 60 1016.2
20260901015002 90 62 2.0 2.0 0.00 0.00 0.00 59 1016.0
20260901014458 90 73 0.0 3.0 0.00 0.00 0.00 60 1016.1
20260901013954 90 63 2.0 2.0 0.00 0.00 0.00 60 1016.0
20260901013450 90 82 0.0 2.0 0.00 0.00 0.00 60 1016.1
20260901012946 90 102 2.0 4.0 0.00 0.00 0.00 60 1016.4
20260901012445 91 112 0.0 3.0 0.00 0.00 0.00 58 1016.2
20260901011940 91 151 3.0 3.0 0.00 0.00 0.00 57 1016.1
20260901011436 91 126 2.0 6.0 0.00 0.00 0.00 57 1015.9
20260901010934 91 78 2.0 10.0 0.00 0.00 0.00 57 1016.1
20260901010429 91 73 2.0 7.0 0.00 0.00 0.00 57 1015.8
20260901005929 91 93 0.0 2.0 0.00 0.00 0.00 56 1015.8
20260901005424 92 100 2.0 7.0 0.00 0.00 0.00 56 1015.7
20260901004919 93 103 5.0 9.0 0.00 0.00 0.00 54 1015.7
20260901004418 94 160 2.0 3.0 0.00 0.00 0.00 47 1015.8
20260901003913 94 59 0.0 0.0 0.00 0.00 0.00 46 1015.4
20260901003408 95 82 0.0 1.0 0.00 0.00 0.00 46 1015.7
20260901002906 95 73 0.0 1.0 0.00 0.00 0.00 46 1015.6
20260901002401 95 67 0.0 1.0 0.00 0.00 0.00 45 1015.3
20260901001901 95 67 0.0 1.0 0.00 0.00 0.00 45 1015.5
20260901001356 95 83 1.0 1.0 0.00 0.00 0.00 45 1015.2
20260901000852 95 70 0.0 1.0 0.00 0.00 0.00 44 1015.4
20260901000346 96 93 2.0 3.0 0.00 0.00 0.00 44 1015.3
20260831235845 96 82 0.0 1.0 0.00 0.00 0.00 44 1015.4
20260831235341 96 73 1.0 1.0 0.00 0.00 0.00 44 1015.4
20260831234836 96 120 1.0 2.0 0.00 0.00 0.00 44 1015.5
20260831234336 96 60 2.0 4.0 0.00 0.00 0.00 43 1015.4
20260831233831 96 101 4.0 4.0 0.00 0.00 0.00 43 1015.4
20260831233327 97 84 1.0 2.0 0.00 0.00 0.00 43 1015.5
20260831232822 97 67 0.0 1.0 0.00 0.00 0.00 42 1015.4
20260831232318 97 61 0.0 1.0 0.00 0.00 0.00 42 1015.3
20260831231814 97 87 0.0 6.0 0.00 0.00 0.00 42 1015.5
20260831231310 98 106 2.0 4.0 0.00 0.00 0.00 42 1015.6
20260831230805 98 103 1.0 2.0 0.00 0.00 0.00 41 1015.4
20260831230300 99 104 3.0 3.0 0.00 0.00 0.00 40 1015.5
20260831225759 98 78 0.0 1.0 0.00 0.00 0.00 40 1015.5
20260831225255 99 105 5.0 7.0 0.00 0.00 0.00 39 1015.6
20260831224750 99 51 0.0 3.0 0.00 0.00 0.00 41 1015.6
20260831224245 98 56 1.0 2.0 0.00 0.00 0.00 40 1015.6
20260831223740 98 62 0.0 1.0 0.00 0.00 0.00 41 1015.6
20260831223236 99 84 1.0 3.0 0.00 0.00 0.00 41 1015.7
20260831222732 98 78 0.0 2.0 0.00 0.00 0.00 40 1015.6
20260831222228 98 65 0.0 1.0 0.00 0.00 0.00 40 1015.6
20260831221723 97 78 0.0 2.0 0.00 0.00 0.00 40 1015.8
20260831221218 97 76 1.0 2.0 0.00 0.00 0.00 40 1015.6
20260831220713 97 92 2.0 3.0 0.00 0.00 0.00 41 1015.9
20260831220209 97 95 3.0 3.0 0.00 0.00 0.00 40 1015.7
20260831215703 98 68 0.0 1.0 0.00 0.00 0.00 40 1016.0
20260831215159 97 61 0.0 1.0 0.00 0.00 0.00 43 1015.9
20260831214656 97 63 0.0 0.0 0.00 0.00 0.00 42 1016.0
20260831214153 97 68 0.0 0.0 0.00 0.00 0.00 42 1016.1
20260831213648 97 66 0.0 0.0 0.00 0.00 0.00 42 1015.9
20260831213144 97 56 0.0 1.0 0.00 0.00 0.00 41 1016.1
20260831212640 97 64 0.0 1.0 0.00 0.00 0.00 43 1016.3
20260831212137 97 85 0.0 2.0 0.00 0.00 0.00 42 1016.4
20260831211635 97 74 1.0 2.0 0.00 0.00 0.00 42 1016.2
20260831211135 99 82 3.0 4.0 0.00 0.00 0.00 40 1016.2
20260831210630 100 59 1.0 2.0 0.00 0.00 0.00 40 1016.1
20260831210127 100 66 1.0 3.0 0.00 0.00 0.00 40 1016.4
20260831205625 98 76 2.0 3.0 0.00 0.00 0.00 41 1016.4
20260831205122 99 108 2.0 6.0 0.00 0.00 0.00 41 1016.7
20260831204616 98 81 1.0 2.0 0.00 0.00 0.00 41 1016.6
20260831204114 98 87 1.0 2.0 0.00 0.00 0.00 41 1016.7
20260831203614 98 89 2.0 4.0 0.00 0.00 0.00 40 1016.8
20260831203114 101 77 0.0 1.0 0.00 0.00 0.00 39 1016.7
20260831202613 102 33 1.0 4.0 0.00 0.00 0.00 39 1017.1
20260831202113 101 126 1.0 2.0 0.00 0.00 0.00 37 1016.9
20260831201612 99 63 0.0 2.0 0.00 0.00 0.00 39 1017.0
20260831201107 101 92 2.0 2.0 0.00 0.00 0.00 37 1017.0
20260831200603 99 78 2.0 3.0 0.00 0.00 0.00 39 1017.2
20260831200057 101 140 2.0 6.0 0.00 0.00 0.00 39 1017.4
20260831195553 100 17 1.0 2.0 0.00 0.00 0.00 37 1017.2
20260831195048 101 95 1.0 6.0 0.00 0.00 0.00 38 1017.5
20260831194543 100 107 2.0 4.0 0.00 0.00 0.00 39 1017.4
20260831194038 101 79 1.0 2.0 0.00 0.00 0.00 39 1017.6
20260831193533 100 59 0.0 2.0 0.00 0.00 0.00 40 1017.5
20260831193028 98 37 1.0 1.0 0.00 0.00 0.00 40 1017.7
20260831192523 98 92 0.0 1.0 0.00 0.00 0.00 43 1017.9
20260831192018 98 279 2.0 4.0 0.00 0.00 0.00 41 1018.0
20260831191514 102 79 2.0 7.0 0.00 0.00 0.00 40 1018.1
20260831191010 101 20 0.0 4.0 0.00 0.00 0.00 38 1018.0
20260831190506 100 71 2.0 8.0 0.00 0.00 0.00 40 1018.2
20260831190004 100 61 1.0 6.0 0.00 0.00 0.00 42 1018.1
20260831185500 99 60 0.0 2.0 0.00 0.00 0.00 43 1018.2
20260831185000 100 102 2.0 3.0 0.00 0.00 0.00 41 1018.3
20260831184454 98 94 1.0 3.0 0.00 0.00 0.00 43 1018.4
20260831183950 98 72 1.0 4.0 0.00 0.00 0.00 43 1018.4
20260831183449 100 57 1.0 2.0 0.00 0.00 0.00 41 1018.4
20260831182949 99 106 1.0 4.0 0.00 0.00 0.00 43 1018.5
20260831182444 99 65 1.0 6.0 0.00 0.00 0.00 44 1018.6
20260831181940 99 55 1.0 2.0 0.00 0.00 0.00 43 1018.6
20260831181435 98 101 4.0 6.0 0.00 0.00 0.00 43 1018.7
20260831180935 98 90 1.0 6.0 0.00 0.00 0.00 43 1018.8
20260831180429 99 100 1.0 2.0 0.00 0.00 0.00 43 1018.9
20260831175929 98 94 1.0 9.0 0.00 0.00 0.00 42 1019.0
20260831175426 98 79 1.0 2.0 0.00 0.00 0.00 43 1019.0
20260831174921 97 71 0.0 2.0 0.00 0.00 0.00 46 1018.8
20260831174416 97 124 2.0 3.0 0.00 0.00 0.00 44 1019.0
20260831173916 96 71 1.0 3.0 0.00 0.00 0.00 45 1019.1
20260831173415 97 58 1.0 2.0 0.00 0.00 0.00 44 1019.3
20260831172910 96 87 3.0 6.0 0.00 0.00 0.00 46 1019.2
20260831172406 97 56 1.0 2.0 0.00 0.00 0.00 46 1019.2
20260831171906 96 56 0.0 3.0 0.00 0.00 0.00 49 1019.3
20260831171402 95 100 0.0 4.0 0.00 0.00 0.00 51 1019.5
20260831170859 95 67 0.0 1.0 0.00 0.00 0.00 52 1019.5
20260831170354 94 65 0.0 1.0 0.00 0.00 0.00 53 1019.5
20260831165851 94 79 1.0 3.0 0.00 0.00 0.00 55 1019.5
20260831165347 94 63 0.0 1.0 0.00 0.00 0.00 54 1019.7
20260831164843 95 9 1.0 3.0 0.00 0.00 0.00 53 1019.5
20260831164339 95 61 1.0 2.0 0.00 0.00 0.00 54 1019.5
20260831163834 94 120 2.0 3.0 0.00 0.00 0.00 55 1019.5
20260831163330 94 75 1.0 2.0 0.00 0.00 0.00 52 1019.8
20260831162828 94 43 0.0 1.0 0.00 0.00 0.00 53 1019.8
20260831162324 93 136 1.0 2.0 0.00 0.00 0.00 54 1019.7
20260831161822 93 59 0.0 1.0 0.00 0.00 0.00 55 1019.7
20260831161319 92 35 1.0 2.0 0.00 0.00 0.00 57 1019.8
20260831160813 92 183 2.0 2.0 0.00 0.00 0.00 59 1019.7
20260831160308 92 299 1.0 2.0 0.00 0.00 0.00 59 1019.6
20260831155808 91 43 1.0 2.0 0.00 0.00 0.00 58 1019.7
20260831155306 91 92 1.0 1.0 0.00 0.00 0.00 62 1019.6
20260831154759 91 59 0.0 1.0 0.00 0.00 0.00 61 1019.6
20260831154255 90 30 0.0 1.0 0.00 0.00 0.00 62 1019.5
20260831153753 89 11 1.0 2.0 0.00 0.00 0.00 65 1019.7
20260831153249 89 344 1.0 3.0 0.00 0.00 0.00 67 1019.6
20260831152745 89 50 0.0 2.0 0.00 0.00 0.00 68 1019.4
20260831152241 89 107 1.0 2.0 0.00 0.00 0.00 69 1019.6
20260831151741 89 58 1.0 2.0 0.00 0.00 0.00 68 1019.4
20260831151240 90 354 2.0 2.0 0.00 0.00 0.00 70 1019.5
20260831150736 89 21 1.0 1.0 0.00 0.00 0.00 70 1019.4
20260831150231 90 100 1.0 2.0 0.00 0.00 0.00 70 1019.6
20260831145730 90 83 0.0 1.0 0.00 0.00 0.00 69 1019.6
20260831145227 89 86 1.0 3.0 0.00 0.00 0.00 69 1019.5
20260831144722 89 32 0.0 1.0 0.00 0.00 0.00 70 1019.5
20260831144219 88 61 0.0 1.0 0.00 0.00 0.00 74 1019.3
20260831143718 87 345 0.0 1.0 0.00 0.00 0.00 75 1019.3
20260831143213 87 55 0.0 1.0 0.00 0.00 0.00 77 1019.5
20260831142709 86 84 1.0 1.0 0.00 0.00 0.00 77 1019.4
20260831142204 87 52 0.0 1.0 0.00 0.00 0.00 77 1019.3
20260831141703 87 100 0.0 1.0 0.00 0.00 0.00 76 1019.3
20260831141158 87 75 0.0 1.0 0.00 0.00 0.00 78 1019.1
20260831140658 86 54 0.0 0.0 0.00 0.00 0.00 79 1019.1
20260831140153 85 66 0.0 1.0 0.00 0.00 0.00 81 1019.3
20260831135650 84 87 0.0 1.0 0.00 0.00 0.00 82 1019.3
20260831135147 84 64 0.0 0.0 0.00 0.00 0.00 83 1019.1
20260831134642 83 77 0.0 0.0 0.00 0.00 0.00 84 1019.2
20260831134138 81 67 0.0 0.0 0.00 0.00 0.00 89 1019.0
20260831133637 80 65 0.0 1.0 0.00 0.00 0.00 90 1018.9
20260831133132 79 70 0.0 1.0 0.00 0.00 0.00 92 1019.0
20260831132628 79 58 0.0 0.0 0.00 0.00 0.00 93 1018.9
20260831132126 79 59 0.0 0.0 0.00 0.00 0.00 94 1018.8
20260831131621 78 69 0.0 0.0 0.00 0.00 0.00 94 1018.5
20260831131118 78 65 0.0 1.0 0.00 0.00 0.00 95 1018.8
20260831130613 78 62 0.0 0.0 0.00 0.00 0.00 95 1018.6
20260831130109 77 64 0.0 0.0 0.00 0.00 0.00 95 1018.5
20260831125607 77 57 0.0 0.0 0.00 0.00 0.00 95 1018.5
20260831125103 77 56 0.0 0.0 0.00 0.00 0.00 95 1018.6
20260831124559 77 58 0.0 0.0 0.00 0.00 0.00 95 1018.3
20260831124054 76 57 0.0 0.0 0.00 0.00 0.00 95 1018.6
20260831123553 76 61 0.0 0.0 0.00 0.00 0.00 95 1018.4
20260831123048 76 59 0.0 0.0 0.00 0.00 0.00 95 1018.4
20260831122543 76 61 0.0 0.0 0.00 0.00 0.00 95 1018.3
20260831122038 76 61 0.0 0.0 0.00 0.00 0.00 95 1018.3
20260831121532 76 61 0.0 0.0 0.00 0.00 0.00 94 1018.2
20260831121029 76 62 0.0 0.0 0.00 0.00 0.00 94 1018.1
20260831120527 76 60 0.0 0.0 0.00 0.00 0.00 94 1018.1
20260831120023 76 57 0.0 0.0 0.00 0.00 0.00 94 1018.1
20260831115519 76 56 0.0 0.0 0.00 0.00 0.00 94 1018.0
20260831115014 76 53 0.0 0.0 0.00 0.00 0.00 94 1018.0
20260831114513 76 59 0.0 0.0 0.00 0.00 0.00 94 1018.2
20260831114008 76 64 0.0 0.0 0.00 0.00 0.00 93 1018.1
20260831113508 77 63 0.0 0.0 0.00 0.00 0.00 93 1018.1
20260831113004 77 69 0.0 0.0 0.00 0.00 0.00 93 1018.0
20260831112503 77 59 0.0 0.0 0.00 0.00 0.00 93 1017.9
20260831111958 77 53 0.0 0.0 0.00 0.00 0.00 93 1018.0
20260831111454 77 59 0.0 0.0 0.00 0.00 0.00 93 1018.1
20260831110949 77 59 0.0 0.0 0.00 0.00 0.00 93 1017.9
20260831110444 77 59 0.0 1.0 0.00 0.00 0.00 93 1018.0
20260831105943 77 58 0.0 0.0 0.00 0.00 0.00 92 1018.0